Home > Weather > Vallejo > Past weeks

Flag for U.S.A. Weather for the Past 2 Weeks in Vallejo, California, U.S.A.

Now
43 °F

Clear.


Feels Like: 41 °F
Forecast: 44 / 64 °F
Wind: 3 mph from Northeast

Location: Napa County Airport

Current Time: Feb 6, 2016 at 12:08:45 AM

Latest Report: Feb 5, 2016 at 10:54 PM


Visibility: 10 mi

Pressure: 30.40 "Hg

Humidity: 93%

Dew point: 41 °F

Location of VallejoLocation

Historic Weather in Vallejo — Graph

°F

Vallejo Temperature Yesterday

Maximum temperature yesterday: 61 °F (at 1:54 PM)
Minimum temperature yesterday: 37 °F (at 5:54 AM)
Average temperature yesterday: 48 °F

High & Low Weather Summary for the Past Weeks

 TemperatureHumidityPressure
High122 °F (Jan 31, 4:54 PM)100% (Jan 24, 1:54 AM)30.45 "Hg (Jan 24, 1:54 AM)
Low37 °F (Jan 24, 4:54 AM)4% (Jan 31, 4:54 PM)29.72 "Hg (Jan 31, 2:54 PM)
Average53 °F80%30.17 "Hg
* Reported Jan 21 10:54 PM — Feb 5 10:54 PM, Vallejo, Weather by CustomWeather, © 2016

Note: Actual official high and low records may vary slightly from our data, if they occured in-between our weather recording intervals... More about our weather records

Advertising

Vallejo Weather History for the Previous 24 Hours

 ConditionsComfort  
Time TempWeatherWind HumidityBarometerVisibility
10:54 PM
Fri, Feb 5
43 °FClear.3 mph93%30.40 "Hg10 mi
9:54 PM43 °FClear.No wind89%30.42 "Hg10 mi
8:54 PM47 °FClear.3 mph83%30.39 "Hg10 mi
7:54 PM46 °FClear.5 mph86%30.38 "Hg10 mi
6:54 PM53 °FClear.8 mph74%30.36 "Hg10 mi
5:54 PM55 °FClear.8 mph69%30.34 "Hg10 mi
4:54 PM58 °FSunny.8 mph62%30.34 "Hg10 mi
3:54 PM60 °FSunny.10 mph58%30.35 "Hg10 mi
2:54 PM61 °FSunny.15 mph54%30.35 "Hg10 mi
1:54 PM61 °FSunny.14 mph60%30.37 "Hg10 mi
12:54 PM59 °FSunny.13 mph64%30.39 "Hg10 mi
11:54 AM58 °FSunny.10 mph67%30.41 "Hg10 mi
10:54 AM55 °FSunny.12 mph72%30.42 "Hg10 mi
9:54 AM53 °FSunny.6 mph74%30.41 "Hg10 mi
8:54 AM46 °FSunny.6 mph89%30.40 "Hg10 mi
7:54 AM38 °FSunny.3 mph97%30.40 "Hg10 mi
6:54 AM38 °FClear.5 mph97%30.40 "Hg10 mi
5:54 AM37 °FClear.5 mph96%30.39 "Hg10 mi
4:54 AM38 °FClear.6 mph97%30.39 "Hg10 mi
3:54 AM38 °FClear.6 mph93%30.38 "Hg10 mi
2:54 AM40 °FClear.No wind97%30.37 "Hg10 mi
1:54 AM40 °FClear.6 mph93%30.37 "Hg10 mi
12:54 AM42 °FClear.6 mph92%30.36 "Hg10 mi
Weather by CustomWeather, © 2016

See weather overviewHow to use our weather pages